Weather History for K3I2 - January, 2013

Change the Weather History Date:

Friday, January 25, 2013

  Actual Average (KHTS) Record (KHTS)
Temperature  
Mean Temperature 20 °F 34 °F  
Max Temperature 26 °F 42 °F 79 °F (1950)
Min Temperature 15 °F 25 °F -10 °F (1948)
Degree Days  
Heating Degree Days 44 31  
Month to date heating degree days 781  
Since 1 July heating degree days 2536  
Cooling Degree Days 0 0  
Month to date cooling degree days 0  
Year to date cooling degree days 0  
Moisture  
Dew Point 14 °F    
Average Humidity 75    
Maximum Humidity 93    
Minimum Humidity 50    
Precipitation  
Precipitation 0.00 in 0.09 in 1.09 in (1978)
Month to date precipitation 2.37  
Year to date precipitation 2.37  
Sea Level Pressure  
Sea Level Pressure 30.21 in    
Wind  
Wind Speed 3 mph (SE)    
Max Wind Speed 9 mph    
Max Gust Speed 17 mph    
Visibility 8 miles    
Events Snow    
T = Trace of Precipitation, MM = Missing Value Source: NWS Daily Summary

Daily Weather History Graph

Daily Weather History Graph

Search for Another Location

Airport or City:

Trip Planner

Search our weather history database for the weather conditions in past years. The results will help you decide how hot, cold, wet, or windy it might be!

Date:

Astronomy

Jan. 25, 2013 Rise Set
Actual Time 7:40 AM EST 5:41 PM EST
Civil Twilight 7:11 AM EST 6:10 PM EST
Nautical Twilight 6:39 AM EST 6:42 PM EST
Astronomical Twilight 6:07 AM EST 7:14 PM EST
Moon 4:38 PM EST (1/25) 6:18 AM EST (1/25)
Length of Visible Light 10h 59m
Length of Day
10h 01m
Waxing Gibbous, 98% of the Moon is Illuminated
Jan 25
Waxing Gibbous
Jan 26
Full
Feb 3
Last Quarter
Feb 10
New
Feb 17
First Quarter

Hourly Weather History & Observations

Time (EST) Temp. Windchill Dew Point Humidity Pressure Visibility Wind Dir Wind Speed Gust Speed Precip Events Conditions
12:15 AM 17.6 °F - 8.6 °F 68% 30.51 in 10.0 mi Calm Calm - N/A   Clear
12:35 AM 17.6 °F - 10.4 °F 73% 30.49 in 10.0 mi Calm Calm - N/A   Clear
12:55 AM 17.6 °F - 8.6 °F 68% 30.48 in 10.0 mi Calm Calm - N/A   Clear
1:15 AM 15.8 °F - 8.6 °F 73% 30.49 in 10.0 mi Calm Calm - N/A   Clear
1:35 AM 17.6 °F - 10.4 °F 73% 30.47 in 10.0 mi Calm Calm - N/A   Clear
1:55 AM 17.6 °F 12.3 °F 10.4 °F 73% 30.44 in 10.0 mi East 3.5 mph - N/A   Clear
2:15 AM 19.4 °F 14.3 °F 8.6 °F 63% 30.44 in 10.0 mi ENE 3.5 mph - N/A   Clear
2:55 AM 19.4 °F 14.3 °F 10.4 °F 68% 30.41 in 10.0 mi ENE 3.5 mph - N/A   Clear
3:15 AM 19.4 °F 12.8 °F 8.6 °F 63% 30.41 in 10.0 mi East 4.6 mph - N/A   Clear
3:55 AM 19.4 °F 11.5 °F 8.6 °F 63% 30.39 in 10.0 mi East 5.8 mph - N/A   Clear
4:15 AM 19.4 °F 11.5 °F 8.6 °F 63% 30.38 in 10.0 mi ENE 5.8 mph - N/A   Clear
4:35 AM 21.2 °F 14.9 °F 8.6 °F 58% 30.37 in 10.0 mi East 4.6 mph - N/A   Clear
4:55 AM 21.2 °F 13.6 °F 8.6 °F 58% 30.35 in 10.0 mi East 5.8 mph - N/A   Clear
5:15 AM 21.2 °F 14.9 °F 8.6 °F 58% 30.35 in 10.0 mi East 4.6 mph - N/A   Clear
5:55 AM 21.2 °F 13.6 °F 6.8 °F 54% 30.32 in 10.0 mi East 5.8 mph - N/A   Clear
6:15 AM 21.2 °F 12.6 °F 6.8 °F 54% 30.30 in 10.0 mi East 6.9 mph - N/A   Clear
6:35 AM 21.2 °F 10.9 °F 5.0 °F 50% 30.28 in 10.0 mi East 9.2 mph 17.3 mph N/A   Clear
6:55 AM 21.2 °F 12.6 °F 5.0 °F 50% 30.27 in 10.0 mi East 6.9 mph - N/A   Clear
7:15 AM 21.2 °F 13.6 °F 5.0 °F 50% 30.27 in 10.0 mi East 5.8 mph - N/A   Clear
7:35 AM 21.2 °F 12.6 °F 6.8 °F 54% 30.26 in 10.0 mi East 6.9 mph - N/A   Clear
7:55 AM 21.2 °F 14.9 °F 5.0 °F 50% 30.25 in 10.0 mi East 4.6 mph - N/A   Scattered Clouds
8:15 AM 21.2 °F 12.6 °F 5.0 °F 50% 30.23 in 10.0 mi East 6.9 mph - N/A   Scattered Clouds
8:35 AM 21.2 °F 13.6 °F 5.0 °F 50% 30.22 in 10.0 mi East 5.8 mph - N/A   Clear
8:55 AM 21.2 °F 14.9 °F 5.0 °F 50% 30.20 in 10.0 mi East 4.6 mph - N/A   Scattered Clouds
9:15 AM 21.2 °F 16.4 °F 6.8 °F 54% 30.20 in 10.0 mi East 3.5 mph - N/A   Scattered Clouds
9:35 AM 21.2 °F 12.6 °F 6.8 °F 54% 30.19 in 10.0 mi ENE 6.9 mph - N/A   Clear
9:55 AM 21.2 °F - 5.0 °F 50% 30.20 in 10.0 mi Calm Calm - N/A   Clear
10:15 AM 21.2 °F - 8.6 °F 58% 30.21 in 10.0 mi Calm Calm - N/A   Mostly Cloudy
10:35 AM 21.2 °F 16.4 °F 10.4 °F 63% 30.21 in 1.8 mi East 3.5 mph - N/A Snow Light Snow
10:55 AM 19.4 °F 14.3 °F 14.0 °F 80% 30.19 in 0.5 mi East 3.5 mph - N/A Snow Light Snow
11:15 AM 19.4 °F 11.5 °F 15.8 °F 86% 30.16 in 0.5 mi East 5.8 mph - N/A Snow Light Snow
11:35 AM 19.4 °F 12.8 °F 15.8 °F 86% 30.15 in 0.8 mi East 4.6 mph - N/A Snow Light Snow
11:55 AM 19.4 °F - 15.8 °F 86% 30.13 in 1.0 mi Calm Calm - N/A Snow Light Snow
12:15 PM 19.4 °F - 15.8 °F 86% 30.12 in 0.8 mi Calm Calm - N/A Snow Light Snow
12:35 PM 21.2 °F - 17.6 °F 86% 30.11 in 0.8 mi Calm Calm - N/A Snow Light Snow
12:55 PM 21.2 °F - 17.6 °F 86% 30.10 in 0.8 mi Calm Calm - N/A Snow Light Snow
1:15 PM 21.2 °F - 17.6 °F 86% 30.10 in 1.0 mi Calm Calm - N/A Snow Light Snow
1:35 PM 21.2 °F - 17.6 °F 86% 30.09 in 1.5 mi Calm Calm - N/A Snow Light Snow
1:55 PM 21.2 °F - 17.6 °F 86% 30.08 in 5.0 mi Calm Calm - N/A   Overcast
2:15 PM 21.2 °F - 17.6 °F 86% 30.06 in 2.5 mi Calm Calm - N/A   Overcast
2:35 PM 21.2 °F - 19.4 °F 93% 30.06 in 2.0 mi Calm Calm - N/A Snow Light Snow
2:55 PM 21.2 °F - 19.4 °F 93% 30.06 in 2.0 mi Calm Calm - N/A Snow Light Snow
3:15 PM 21.2 °F - 19.4 °F 93% 30.05 in 3.0 mi Calm Calm - N/A Snow Light Snow
3:35 PM 23.0 °F - 19.4 °F 86% 30.05 in 7.0 mi Calm Calm - N/A   Mostly Cloudy
3:55 PM 23.0 °F - 19.4 °F 86% 30.06 in 10.0 mi Calm Calm - N/A   Scattered Clouds
4:15 PM 23.0 °F - 19.4 °F 86% 30.06 in 7.0 mi Calm Calm - N/A   Mostly Cloudy
4:55 PM 23.0 °F - 19.4 °F 86% 30.06 in 7.0 mi Calm Calm - N/A   Overcast
5:15 PM 23.0 °F - 19.4 °F 86% 30.07 in 7.0 mi Calm Calm - N/A   Overcast
5:55 PM 23.0 °F 18.4 °F 21.2 °F 93% 30.08 in 10.0 mi SW 3.5 mph - N/A   Overcast
6:15 PM 23.0 °F 15.8 °F 21.2 °F 93% 30.08 in 10.0 mi WSW 5.8 mph - N/A   Overcast
6:35 PM 23.0 °F 17.0 °F 21.2 °F 93% 30.09 in 10.0 mi SW 4.6 mph - N/A   Overcast
6:55 PM 23.0 °F 17.0 °F 21.2 °F 93% 30.10 in 10.0 mi SW 4.6 mph - N/A   Overcast
7:15 PM 23.0 °F 17.0 °F 21.2 °F 93% 30.10 in 10.0 mi WSW 4.6 mph - N/A   Overcast
7:35 PM 23.0 °F 17.0 °F 21.2 °F 93% 30.11 in 10.0 mi WSW 4.6 mph - N/A   Overcast
7:55 PM 23.0 °F 15.8 °F 21.2 °F 93% 30.11 in 10.0 mi SW 5.8 mph - N/A   Overcast
8:15 PM 23.0 °F 17.0 °F 21.2 °F 93% 30.12 in 10.0 mi SW 4.6 mph - N/A   Overcast
8:55 PM 24.8 °F 19.1 °F 21.2 °F 86% 30.13 in 10.0 mi SW 4.6 mph - N/A   Overcast
9:15 PM 24.8 °F 19.1 °F 21.2 °F 86% 30.12 in 10.0 mi SW 4.6 mph - N/A   Overcast
9:35 PM 24.8 °F 17.9 °F 21.2 °F 86% 30.14 in 10.0 mi SW 5.8 mph - N/A   Overcast
9:55 PM 24.8 °F 19.1 °F 21.2 °F 86% 30.15 in 7.0 mi SW 4.6 mph - N/A   Overcast
10:15 PM 24.8 °F 17.9 °F 21.2 °F 86% 30.16 in 10.0 mi SW 5.8 mph - N/A   Mostly Cloudy
10:35 PM 26.6 °F 19.1 °F 23.0 °F 86% 30.16 in 10.0 mi SW 6.9 mph - N/A   Mostly Cloudy
10:55 PM 26.6 °F 19.1 °F 23.0 °F 86% 30.17 in 10.0 mi SW 6.9 mph - N/A   Mostly Cloudy
11:15 PM 26.6 °F 21.2 °F 23.0 °F 86% 30.18 in 7.0 mi WSW 4.6 mph - N/A   Mostly Cloudy
11:35 PM 26.6 °F 20.0 °F 23.0 °F 86% 30.18 in 7.0 mi WSW 5.8 mph - N/A   Mostly Cloudy
11:55 PM 26.6 °F 20.0 °F 23.0 °F 86% 30.18 in 7.0 mi SW 5.8 mph - N/A   Mostly Cloudy